ANA8442 RCTP-RJAA

Flight info

Callsign ANA8442
Flight time 3h 9m
Altitude 41000
Route MOLKA1C MOLKA M750 MUKEP Y891 AGIMO Y89 GUPER Y81 RUTAS
Aircraft B77L/H-SDE1E2E3FGHIJ2J3J4J5M1RWXY/LB1D1

Departure

Time 2026-05-06 07:35
Airport Taiwan Taoyuan International Airport (RCTP)

Arrival

Time 2026-05-06 10:45
Airport Narita International Airport (RJAA)
Time Latitude Longitude Altitude Speed Heading
2026-05-06 07:06 25.09846 121.24171 105 ft 0 kts 319°
2026-05-06 07:21 25.09834 121.24183 114 ft 2 kts 316°
2026-05-06 07:21 25.09822 121.24196 103 ft 2 kts 313°
2026-05-06 07:21 25.09811 121.24209 104 ft 2 kts 308°
2026-05-06 07:21 25.09801 121.24224 105 ft 2 kts 299°
2026-05-06 07:22 25.09794 121.24241 103 ft 2 kts 281°
2026-05-06 07:22 25.09794 121.24259 103 ft 2 kts 248°
2026-05-06 07:22 25.09800 121.24272 103 ft 1 kts 231°
2026-05-06 07:22 25.09802 121.24274 105 ft 0 kts 230°
2026-05-06 07:24 25.09797 121.24267 105 ft 4 kts 230°
2026-05-06 07:24 25.09756 121.24214 107 ft 15 kts 230°
2026-05-06 07:24 25.09690 121.24148 108 ft 10 kts 198°
2026-05-06 07:25 25.09622 121.24174 108 ft 11 kts 145°
2026-05-06 07:25 25.09559 121.24229 107 ft 12 kts 140°
2026-05-06 07:25 25.09537 121.24249 108 ft 0 kts 140°
2026-05-06 07:26 25.09536 121.24251 108 ft 2 kts 140°
2026-05-06 07:26 25.09481 121.24301 105 ft 17 kts 140°
2026-05-06 07:27 25.09387 121.24387 107 ft 18 kts 140°
2026-05-06 07:27 25.09279 121.24433 106 ft 18 kts 205°
2026-05-06 07:27 25.09191 121.24338 107 ft 18 kts 230°
2026-05-06 07:27 25.09122 121.24249 106 ft 15 kts 229°
2026-05-06 07:28 25.09052 121.24161 107 ft 16 kts 229°
2026-05-06 07:28 25.08977 121.24066 106 ft 17 kts 229°
2026-05-06 07:28 25.08811 121.23856 108 ft 19 kts 229°
2026-05-06 07:29 25.08724 121.23746 107 ft 20 kts 229°
2026-05-06 07:29 25.08636 121.23631 107 ft 20 kts 230°
2026-05-06 07:29 25.08547 121.23518 107 ft 18 kts 229°
2026-05-06 07:29 25.08463 121.23411 107 ft 19 kts 229°
2026-05-06 07:30 25.08375 121.23298 106 ft 20 kts 229°
2026-05-06 07:30 25.08281 121.23181 107 ft 21 kts 229°
2026-05-06 07:30 25.08183 121.23056 106 ft 22 kts 229°
2026-05-06 07:30 25.08085 121.22932 106 ft 22 kts 229°
2026-05-06 07:31 25.07983 121.22804 105 ft 23 kts 229°
2026-05-06 07:31 25.07879 121.22673 107 ft 23 kts 230°
2026-05-06 07:31 25.07792 121.22555 106 ft 19 kts 231°
2026-05-06 07:31 25.07707 121.22441 107 ft 20 kts 231°
2026-05-06 07:32 25.07613 121.22328 107 ft 20 kts 226°
2026-05-06 07:32 25.07520 121.22214 106 ft 20 kts 229°
2026-05-06 07:32 25.07429 121.22098 107 ft 20 kts 229°
2026-05-06 07:32 25.07339 121.21981 107 ft 20 kts 230°
2026-05-06 07:33 25.07247 121.21866 108 ft 20 kts 228°
2026-05-06 07:33 25.07184 121.21770 107 ft 12 kts 259°
2026-05-06 07:33 25.07221 121.21697 108 ft 8 kts 317°
2026-05-06 07:33 25.07225 121.21694 108 ft 0 kts 317°
2026-05-06 07:34 25.07247 121.21671 107 ft 11 kts 317°
2026-05-06 07:34 25.07334 121.21660 108 ft 15 kts 36°
2026-05-06 07:34 25.07380 121.21715 108 ft 0 kts 49°
2026-05-06 07:35 25.07443 121.21793 107 ft 36 kts 49°
2026-05-06 07:35 25.07803 121.22251 107 ft 121 kts 49°
2026-05-06 07:35 25.08493 121.23136 272 ft 171 kts 48°
2026-05-06 07:35 25.09220 121.24081 1324 ft 159 kts 51°
2026-05-06 07:36 25.09941 121.25031 2121 ft 166 kts 49°
2026-05-06 07:36 25.10764 121.26064 2573 ft 197 kts 49°
2026-05-06 07:36 25.11749 121.27304 2911 ft 233 kts 49°
2026-05-06 07:36 25.12877 121.28730 3454 ft 258 kts 49°
2026-05-06 07:37 25.14082 121.30280 4232 ft 274 kts 49°
2026-05-06 07:37 25.15327 121.31895 5233 ft 278 kts 49°
2026-05-06 07:37 25.16591 121.33537 6309 ft 283 kts 48°
2026-05-06 07:37 25.17884 121.35217 7229 ft 292 kts 48°
2026-05-06 07:38 25.19218 121.36950 8133 ft 301 kts 48°
2026-05-06 07:38 25.20591 121.38735 9075 ft 308 kts 48°
2026-05-06 07:38 25.21996 121.40562 10024 ft 315 kts 48°
2026-05-06 07:38 25.23440 121.42441 10733 ft 331 kts 48°
2026-05-06 07:39 25.24998 121.44467 11001 ft 361 kts 48°
2026-05-06 07:39 25.26688 121.46665 11283 ft 387 kts 49°
2026-05-06 07:39 25.28421 121.48968 12009 ft 391 kts 52°
2026-05-06 07:39 25.29610 121.51700 12666 ft 402 kts 76°
2026-05-06 07:40 25.29844 121.54761 13826 ft 399 kts 95°
2026-05-06 07:40 25.29586 121.57780 14614 ft 392 kts 88°
2026-05-06 07:40 25.29967 121.60756 15487 ft 391 kts 75°
2026-05-06 07:40 25.30628 121.63664 16163 ft 401 kts 73°
2026-05-06 07:41 25.31325 121.66684 16818 ft 410 kts 74°
2026-05-06 07:41 25.32005 121.69770 17526 ft 418 kts 75°
2026-05-06 07:41 25.32667 121.72930 18185 ft 426 kts 75°
2026-05-06 07:41 25.33317 121.76154 18789 ft 433 kts 75°
2026-05-06 07:42 25.33959 121.79419 19456 ft 437 kts 75°
2026-05-06 07:42 25.34598 121.82716 20160 ft 440 kts 75°
2026-05-06 07:42 25.35238 121.86035 20858 ft 444 kts 75°
2026-05-06 07:42 25.35885 121.89393 21514 ft 448 kts 75°
2026-05-06 07:43 25.36539 121.92781 22162 ft 453 kts 75°
2026-05-06 07:43 25.37199 121.96205 22823 ft 457 kts 75°
2026-05-06 07:43 25.37865 121.99656 23491 ft 461 kts 74°
2026-05-06 07:43 25.38536 122.03139 24046 ft 465 kts 74°
2026-05-06 07:44 25.39212 122.06655 24580 ft 469 kts 74°
2026-05-06 07:44 25.39893 122.10203 25117 ft 474 kts 74°
2026-05-06 07:44 25.40579 122.13780 25653 ft 478 kts 74°
2026-05-06 07:44 25.41271 122.17389 26194 ft 482 kts 74°
2026-05-06 07:45 25.41978 122.21027 26721 ft 485 kts 72°
2026-05-06 07:45 25.42923 122.24608 27251 ft 486 kts 67°
2026-05-06 07:45 25.44083 122.28087 27784 ft 489 kts 64°
2026-05-06 07:45 25.45350 122.31592 28323 ft 493 kts 63°
2026-05-06 07:46 25.46639 122.35127 28839 ft 497 kts 64°
2026-05-06 07:46 25.47913 122.38699 29387 ft 502 kts 64°
2026-05-06 07:46 25.49170 122.42324 29919 ft 506 kts 65°
2026-05-06 07:46 25.50410 122.45984 30374 ft 510 kts 65°
2026-05-06 07:47 25.51644 122.49676 30852 ft 512 kts 65°
2026-05-06 07:47 25.52872 122.53374 31455 ft 511 kts 65°
2026-05-06 07:47 25.54095 122.57060 32119 ft 508 kts 65°
2026-05-06 07:47 25.55313 122.60727 32736 ft 507 kts 64°
2026-05-06 07:48 25.56533 122.64392 33311 ft 507 kts 64°
2026-05-06 07:48 25.57752 122.68052 33877 ft 506 kts 64°
2026-05-06 07:48 25.58969 122.71708 34369 ft 506 kts 64°
2026-05-06 07:48 25.60186 122.75364 34832 ft 506 kts 64°
2026-05-06 07:49 25.61401 122.79023 35292 ft 506 kts 64°
2026-05-06 07:49 25.62613 122.82674 35732 ft 505 kts 64°
2026-05-06 07:49 25.63826 122.86332 36196 ft 505 kts 64°
2026-05-06 07:49 25.65028 122.89936 36637 ft 504 kts 64°
2026-05-06 07:50 25.66254 122.93574 37068 ft 504 kts 64°
2026-05-06 07:50 25.67501 122.97260 37499 ft 504 kts 64°
2026-05-06 07:50 25.68718 123.00857 37914 ft 504 kts 64°
2026-05-06 07:50 25.69946 123.04496 38346 ft 503 kts 64°
2026-05-06 07:51 25.71169 123.08127 38730 ft 503 kts 64°
2026-05-06 07:51 25.72393 123.11768 39038 ft 503 kts 64°
2026-05-06 07:51 25.73614 123.15405 39325 ft 504 kts 64°
2026-05-06 07:51 25.74835 123.19048 39605 ft 504 kts 64°
2026-05-06 07:52 25.76058 123.22703 39907 ft 505 kts 64°
2026-05-06 07:52 25.77280 123.26354 40191 ft 505 kts 64°
2026-05-06 07:52 25.78274 123.29329 40424 ft 505 kts 64°
2026-05-06 07:52 25.79496 123.32988 40697 ft 505 kts 65°
2026-05-06 07:53 25.80719 123.36652 40893 ft 507 kts 65°
2026-05-06 07:53 25.81950 123.40342 40939 ft 511 kts 65°
2026-05-06 07:53 25.84410 123.47738 40963 ft 509 kts 65°
2026-05-06 07:54 25.86885 123.55030 40964 ft 497 kts 58°
2026-05-06 07:54 25.88702 123.58154 40980 ft 482 kts 43°
2026-05-06 07:54 25.91147 123.60697 40987 ft 470 kts 28°
2026-05-06 07:55 25.93955 123.62423 40985 ft 457 kts 18°
2026-05-06 07:55 25.96872 123.63861 40993 ft 462 kts 18°
2026-05-06 07:55 26.02745 123.66817 40988 ft 470 kts 19°
2026-05-06 07:56 26.08695 123.69898 40986 ft 472 kts 19°
2026-05-06 07:56 26.14650 123.73019 40982 ft 473 kts 19°
2026-05-06 07:57 26.20600 123.76143 40983 ft 472 kts 19°
2026-05-06 07:57 26.26533 123.79259 40985 ft 470 kts 19°
2026-05-06 07:58 26.32447 123.82364 40987 ft 468 kts 19°
2026-05-06 07:58 26.38330 123.85457 40985 ft 466 kts 19°
2026-05-06 07:59 26.44188 123.88540 40987 ft 465 kts 19°
2026-05-06 07:59 26.50027 123.91617 40992 ft 464 kts 19°
2026-05-06 08:00 26.55856 123.94692 40989 ft 463 kts 19°
2026-05-06 08:00 26.61647 123.97750 40995 ft 463 kts 19°
2026-05-06 08:01 26.67224 124.01487 40985 ft 478 kts 40°
2026-05-06 08:01 26.71493 124.07191 40984 ft 484 kts 46°
2026-05-06 08:02 26.75711 124.13082 40990 ft 486 kts 45°
2026-05-06 08:02 26.80013 124.18939 41000 ft 488 kts 45°
2026-05-06 08:03 26.84374 124.24798 41005 ft 490 kts 45°
2026-05-06 08:03 26.88751 124.30682 41008 ft 492 kts 45°
2026-05-06 08:04 26.93138 124.36600 41005 ft 494 kts 45°
2026-05-06 08:04 26.97535 124.42538 41005 ft 495 kts 45°
2026-05-06 08:05 27.01190 124.47468 41005 ft 495 kts 45°
2026-05-06 08:05 27.05590 124.53396 41004 ft 494 kts 45°
2026-05-06 08:06 27.09988 124.59330 41006 ft 494 kts 45°
2026-05-06 08:06 27.14371 124.65255 41001 ft 493 kts 45°
2026-05-06 08:07 27.18742 124.71174 41002 ft 492 kts 46°
2026-05-06 08:07 27.23107 124.77091 41012 ft 491 kts 46°
2026-05-06 08:08 27.27457 124.82996 41008 ft 490 kts 46°
2026-05-06 08:08 27.31778 124.88871 41009 ft 490 kts 46°
2026-05-06 08:09 27.36116 124.94776 41005 ft 490 kts 46°
2026-05-06 08:09 27.40454 125.00686 41008 ft 490 kts 46°
2026-05-06 08:10 27.44817 125.06581 41013 ft 490 kts 46°
2026-05-06 08:10 27.49186 125.12465 41010 ft 490 kts 46°
2026-05-06 08:11 27.53553 125.18359 41011 ft 490 kts 46°
2026-05-06 08:11 27.57914 125.24261 41012 ft 490 kts 46°
2026-05-06 08:12 27.62276 125.30174 41011 ft 490 kts 47°
2026-05-06 08:12 27.66641 125.36101 41014 ft 491 kts 47°
2026-05-06 08:13 27.71001 125.42028 41012 ft 491 kts 47°
2026-05-06 08:13 27.75363 125.47966 41011 ft 491 kts 47°
2026-05-06 08:14 27.79728 125.53917 41010 ft 492 kts 47°
2026-05-06 08:14 27.84062 125.59833 41008 ft 492 kts 47°
2026-05-06 08:15 27.88419 125.65790 41012 ft 492 kts 47°
2026-05-06 08:15 27.92784 125.71765 41012 ft 492 kts 48°
2026-05-06 08:16 27.97142 125.77739 41012 ft 492 kts 48°
2026-05-06 08:16 28.01502 125.83724 41011 ft 493 kts 48°
2026-05-06 08:17 28.05865 125.89721 41012 ft 493 kts 48°
2026-05-06 08:17 28.10225 125.95723 41015 ft 493 kts 48°
2026-05-06 08:18 28.14581 126.01728 41012 ft 494 kts 48°
2026-05-06 08:18 28.18914 126.07709 41014 ft 494 kts 49°
2026-05-06 08:19 28.23277 126.13741 41016 ft 495 kts 49°
2026-05-06 08:19 28.27639 126.19781 41019 ft 495 kts 49°
2026-05-06 08:20 28.32006 126.25834 41011 ft 496 kts 49°
2026-05-06 08:20 28.36373 126.31898 41012 ft 496 kts 49°
2026-05-06 08:21 28.40743 126.37973 41016 ft 497 kts 49°
2026-05-06 08:21 28.45119 126.44066 41019 ft 498 kts 49°
2026-05-06 08:22 28.49503 126.50180 41018 ft 499 kts 49°
2026-05-06 08:22 28.53897 126.56315 41018 ft 501 kts 49°
2026-05-06 08:23 28.58294 126.62464 41019 ft 502 kts 50°
2026-05-06 08:23 28.62700 126.68636 41023 ft 503 kts 50°
2026-05-06 08:24 28.67118 126.74833 41016 ft 504 kts 50°
2026-05-06 08:24 28.71539 126.81043 41015 ft 506 kts 50°
2026-05-06 08:25 28.75971 126.87278 41021 ft 507 kts 50°
2026-05-06 08:25 28.80417 126.93541 41018 ft 508 kts 50°
2026-05-06 08:26 28.84870 126.99825 41029 ft 510 kts 50°
2026-05-06 08:26 28.89328 127.06125 41029 ft 511 kts 50°
2026-05-06 08:27 28.93796 127.12449 41030 ft 512 kts 50°
2026-05-06 08:27 28.98266 127.18785 41027 ft 513 kts 50°
2026-05-06 08:28 29.02751 127.25152 41019 ft 514 kts 51°
2026-05-06 08:28 29.07237 127.31531 41012 ft 515 kts 51°
2026-05-06 08:29 29.11722 127.37918 41026 ft 516 kts 51°
2026-05-06 08:29 29.16212 127.44322 41033 ft 516 kts 51°
2026-05-06 08:30 29.20709 127.50745 41023 ft 517 kts 51°
2026-05-06 08:30 29.25204 127.57177 41025 ft 518 kts 51°
2026-05-06 08:31 29.29674 127.63583 41033 ft 519 kts 51°
2026-05-06 08:31 29.34176 127.70044 41031 ft 519 kts 51°
2026-05-06 08:32 29.38678 127.76516 41034 ft 520 kts 51°
2026-05-06 08:32 29.43187 127.83008 41027 ft 520 kts 51°
2026-05-06 08:33 29.47695 127.89511 41023 ft 521 kts 51°
2026-05-06 08:33 29.52210 127.96032 41026 ft 522 kts 51°
2026-05-06 08:34 29.58989 128.05827 41038 ft 523 kts 51°
2026-05-06 08:35 29.63517 128.12378 41037 ft 524 kts 51°
2026-05-06 08:35 29.68044 128.18941 41027 ft 524 kts 51°
2026-05-06 08:36 29.72575 128.25522 41031 ft 525 kts 51°
2026-05-06 08:36 29.77107 128.32117 41037 ft 525 kts 51°
2026-05-06 08:37 29.81638 128.38720 41044 ft 526 kts 51°
2026-05-06 08:37 29.86172 128.45337 41039 ft 527 kts 51°
2026-05-06 08:38 29.90680 128.51928 41028 ft 527 kts 51°
2026-05-06 08:38 29.95217 128.58571 41031 ft 528 kts 51°
2026-05-06 08:39 29.99755 128.65227 41050 ft 528 kts 51°
2026-05-06 08:39 30.04293 128.71895 41034 ft 528 kts 51°
2026-05-06 08:40 30.08827 128.78569 41033 ft 529 kts 51°
2026-05-06 08:40 30.13364 128.85258 41037 ft 529 kts 51°
2026-05-06 08:41 30.17896 128.91950 41041 ft 529 kts 51°
2026-05-06 08:41 30.22429 128.98655 41042 ft 529 kts 51°
2026-05-06 08:42 30.26963 129.05369 41039 ft 530 kts 51°
2026-05-06 08:42 30.31495 129.12090 41045 ft 530 kts 51°
2026-05-06 08:43 30.36023 129.18819 41045 ft 530 kts 51°
2026-05-06 08:43 30.40556 129.25567 41046 ft 530 kts 51°
2026-05-06 08:44 30.45082 129.32318 41047 ft 531 kts 51°
2026-05-06 08:44 30.49606 129.39076 41049 ft 530 kts 51°
2026-05-06 08:45 30.54123 129.45836 41051 ft 530 kts 51°
2026-05-06 08:45 30.58641 129.52607 41046 ft 530 kts 51°
2026-05-06 08:46 30.63151 129.59379 41050 ft 530 kts 51°
2026-05-06 08:46 30.67660 129.66161 41052 ft 530 kts 51°
2026-05-06 08:47 30.72165 129.72950 41052 ft 530 kts 51°
2026-05-06 08:47 30.76665 129.79743 41056 ft 530 kts 51°
2026-05-06 08:48 30.81165 129.86547 41055 ft 531 kts 51°
2026-05-06 08:48 30.85565 129.93441 41054 ft 531 kts 57°
2026-05-06 08:49 30.89479 130.00730 41060 ft 531 kts 58°
2026-05-06 08:49 30.93286 130.08033 41061 ft 532 kts 58°
2026-05-06 08:50 30.97148 130.15392 41064 ft 532 kts 58°
2026-05-06 08:50 31.01032 130.22734 41058 ft 532 kts 58°
2026-05-06 08:51 31.04920 130.30080 41060 ft 533 kts 58°
2026-05-06 08:51 31.08806 130.37440 41061 ft 533 kts 58°
2026-05-06 08:52 31.12683 130.44804 41063 ft 532 kts 58°
2026-05-06 08:52 31.15903 130.50930 41058 ft 533 kts 58°
2026-05-06 08:53 31.19774 130.58308 41063 ft 533 kts 58°
2026-05-06 08:53 31.23642 130.65694 41068 ft 533 kts 58°
2026-05-06 08:54 31.27506 130.73086 41067 ft 533 kts 59°
2026-05-06 08:54 31.31365 130.80485 41071 ft 533 kts 59°
2026-05-06 08:55 31.35221 130.87891 41082 ft 533 kts 59°
2026-05-06 08:55 31.39078 130.95313 41074 ft 534 kts 59°
2026-05-06 08:56 31.42934 131.02747 41076 ft 534 kts 59°
2026-05-06 08:56 31.46764 131.10145 41075 ft 535 kts 59°
2026-05-06 08:57 31.50617 131.17605 41102 ft 535 kts 59°
2026-05-06 08:57 31.54472 131.25081 41075 ft 536 kts 59°
2026-05-06 08:58 31.58323 131.32566 41093 ft 535 kts 59°
2026-05-06 08:58 31.62169 131.40051 41092 ft 535 kts 59°
2026-05-06 08:59 31.66005 131.47543 41098 ft 536 kts 59°
2026-05-06 08:59 31.69840 131.55053 41096 ft 536 kts 59°
2026-05-06 09:00 31.73677 131.62580 41095 ft 537 kts 59°
2026-05-06 09:00 31.77507 131.70109 41087 ft 537 kts 59°
2026-05-06 09:01 31.81337 131.77651 41094 ft 538 kts 59°
2026-05-06 09:01 31.85168 131.85211 41093 ft 538 kts 59°
2026-05-06 09:02 31.88997 131.92783 41088 ft 539 kts 59°
2026-05-06 09:02 31.92827 132.00372 41087 ft 539 kts 60°
2026-05-06 09:03 31.96660 132.07981 41087 ft 540 kts 60°
2026-05-06 09:03 32.00486 132.15594 41092 ft 540 kts 60°
2026-05-06 09:04 32.04284 132.23165 41091 ft 540 kts 60°
2026-05-06 09:04 32.08104 132.30797 41090 ft 541 kts 60°
2026-05-06 09:05 32.11923 132.38441 41091 ft 541 kts 60°
2026-05-06 09:05 32.15451 132.46285 41089 ft 541 kts 64°
2026-05-06 09:06 32.18780 132.54253 41094 ft 541 kts 65°
2026-05-06 09:06 32.22102 132.62223 41093 ft 541 kts 64°
2026-05-06 09:07 32.25455 132.70190 41094 ft 541 kts 64°
2026-05-06 09:07 32.28816 132.78155 41091 ft 541 kts 64°
2026-05-06 09:08 32.32168 132.86119 41089 ft 541 kts 64°
2026-05-06 09:08 32.35515 132.94095 41092 ft 541 kts 64°
2026-05-06 09:09 32.38856 133.02080 41094 ft 541 kts 64°
2026-05-06 09:09 32.42169 133.10015 41097 ft 542 kts 64°
2026-05-06 09:10 32.45505 133.18019 41096 ft 542 kts 64°
2026-05-06 09:10 32.48836 133.26034 41096 ft 543 kts 64°
2026-05-06 09:11 32.52169 133.34069 41097 ft 543 kts 64°
2026-05-06 09:11 32.55499 133.42114 41101 ft 544 kts 64°
2026-05-06 09:12 32.58841 133.50166 41099 ft 544 kts 64°
2026-05-06 09:12 32.62203 133.58216 41099 ft 545 kts 64°
2026-05-06 09:13 32.65543 133.66288 41096 ft 545 kts 64°
2026-05-06 09:13 32.68846 133.74393 41104 ft 546 kts 65°
2026-05-06 09:14 32.72126 133.82460 41104 ft 546 kts 65°
2026-05-06 09:14 32.75434 133.90598 41105 ft 547 kts 65°
2026-05-06 09:15 32.78738 133.98740 41105 ft 547 kts 65°
2026-05-06 09:15 32.81982 134.06933 41106 ft 547 kts 68°
2026-05-06 09:16 32.84390 134.15483 41105 ft 545 kts 76°
2026-05-06 09:16 32.86469 134.24160 41103 ft 546 kts 76°
2026-05-06 09:17 32.88573 134.32841 41100 ft 546 kts 76°
2026-05-06 09:17 32.90720 134.41505 41107 ft 546 kts 75°
2026-05-06 09:18 32.92875 134.50187 41108 ft 547 kts 76°
2026-05-06 09:18 32.95004 134.58812 41109 ft 547 kts 76°
2026-05-06 09:19 32.97136 134.67494 41108 ft 547 kts 76°
2026-05-06 09:19 32.99267 134.76199 41108 ft 547 kts 76°
2026-05-06 09:20 33.00775 134.85021 41109 ft 542 kts 86°
2026-05-06 09:20 33.01680 134.93935 41108 ft 542 kts 87°
2026-05-06 09:21 33.02595 135.02856 41112 ft 542 kts 86°
2026-05-06 09:21 33.03567 135.11766 41112 ft 543 kts 86°
2026-05-06 09:22 33.04535 135.20694 41113 ft 543 kts 86°
2026-05-06 09:22 33.05481 135.29616 41117 ft 543 kts 86°
2026-05-06 09:23 33.06419 135.38546 41114 ft 542 kts 86°
2026-05-06 09:23 33.07351 135.47457 41126 ft 542 kts 86°
2026-05-06 09:24 33.08280 135.56387 41122 ft 542 kts 86°
2026-05-06 09:24 33.09200 135.65298 41117 ft 542 kts 86°
2026-05-06 09:25 33.10105 135.74163 41122 ft 542 kts 87°
2026-05-06 09:25 33.11008 135.83079 41127 ft 542 kts 87°
2026-05-06 09:26 33.11907 135.92004 41126 ft 542 kts 87°
2026-05-06 09:26 33.12798 136.00924 41124 ft 542 kts 87°
2026-05-06 09:27 33.13684 136.09858 41127 ft 542 kts 87°
2026-05-06 09:27 33.14564 136.18792 41125 ft 543 kts 87°
2026-05-06 09:28 33.15440 136.27752 41124 ft 543 kts 87°
2026-05-06 09:28 33.16310 136.36723 41127 ft 544 kts 87°
2026-05-06 09:29 33.17174 136.45696 41126 ft 545 kts 87°
2026-05-06 09:29 33.18035 136.54688 41132 ft 546 kts 87°
2026-05-06 09:30 33.18897 136.63693 41127 ft 546 kts 87°
2026-05-06 09:30 33.19755 136.72708 41129 ft 547 kts 87°
2026-05-06 09:31 33.20607 136.81740 41128 ft 547 kts 87°
2026-05-06 09:31 33.21452 136.90775 41130 ft 548 kts 87°
2026-05-06 09:32 33.22291 136.99815 41124 ft 548 kts 87°
2026-05-06 09:32 33.23136 137.08865 41126 ft 549 kts 85°
2026-05-06 09:33 33.24526 137.17787 41135 ft 551 kts 80°
2026-05-06 09:33 33.26179 137.26720 41126 ft 551 kts 79°
2026-05-06 09:34 33.27817 137.35672 41126 ft 551 kts 80°
2026-05-06 09:34 33.29404 137.44630 41126 ft 551 kts 80°
2026-05-06 09:35 33.30971 137.53601 41124 ft 551 kts 80°
2026-05-06 09:35 33.32533 137.62569 41127 ft 551 kts 80°
2026-05-06 09:36 33.34091 137.71536 41128 ft 551 kts 80°
2026-05-06 09:36 33.35645 137.80515 41130 ft 551 kts 80°
2026-05-06 09:37 33.37192 137.89493 41134 ft 551 kts 80°
2026-05-06 09:37 33.38732 137.98473 41133 ft 551 kts 80°
2026-05-06 09:38 33.40267 138.07467 41133 ft 551 kts 80°
2026-05-06 09:38 33.41794 138.16453 41134 ft 551 kts 80°
2026-05-06 09:39 33.43379 138.25430 41140 ft 552 kts 76°
2026-05-06 09:39 33.45979 138.34079 41144 ft 552 kts 65°
2026-05-06 09:40 33.49650 138.42128 41148 ft 550 kts 57°
2026-05-06 09:40 33.55750 138.53798 41136 ft 551 kts 56°
2026-05-06 09:41 33.59734 138.61565 41140 ft 551 kts 57°
2026-05-06 09:41 33.63712 138.69423 41138 ft 551 kts 57°
2026-05-06 09:42 33.67689 138.77296 41142 ft 551 kts 57°
2026-05-06 09:42 33.71661 138.85164 41145 ft 551 kts 57°
2026-05-06 09:43 33.74964 138.91714 41146 ft 551 kts 57°
2026-05-06 09:43 33.78931 138.99597 41146 ft 552 kts 57°
2026-05-06 09:44 33.82895 139.07492 41148 ft 552 kts 57°
2026-05-06 09:44 33.86855 139.15399 41152 ft 552 kts 57°
2026-05-06 09:45 33.90814 139.23321 41154 ft 552 kts 57°
2026-05-06 09:45 33.94768 139.31250 41155 ft 552 kts 57°
2026-05-06 09:46 33.98719 139.39193 41157 ft 552 kts 57°
2026-05-06 09:46 34.02663 139.47138 41157 ft 553 kts 57°
2026-05-06 09:47 34.06627 139.55080 41170 ft 552 kts 54°
2026-05-06 09:47 34.11177 139.62483 41158 ft 549 kts 47°
2026-05-06 09:48 34.16019 139.69608 41167 ft 549 kts 47°
2026-05-06 09:48 34.20829 139.76764 41172 ft 549 kts 47°
2026-05-06 09:49 34.25600 139.83981 41171 ft 550 kts 47°
2026-05-06 09:49 34.30364 139.91217 41172 ft 550 kts 47°
2026-05-06 09:50 34.35134 139.98461 41164 ft 550 kts 47°
2026-05-06 09:50 34.39899 140.05724 41165 ft 551 kts 47°
2026-05-06 09:51 34.44658 140.12998 41170 ft 551 kts 48°
2026-05-06 09:51 34.49006 140.20618 41181 ft 555 kts 55°
2026-05-06 09:52 34.53047 140.28594 41160 ft 556 kts 56°
2026-05-06 09:52 34.57094 140.36579 41165 ft 556 kts 55°
2026-05-06 09:53 34.61184 140.44539 41189 ft 556 kts 55°
2026-05-06 09:53 34.65279 140.52502 41177 ft 556 kts 55°
2026-05-06 09:54 34.69377 140.60460 41184 ft 553 kts 51°
2026-05-06 09:54 34.71879 140.63934 41172 ft 540 kts 33°
2026-05-06 09:54 34.74926 140.66533 40704 ft 535 kts 20°
2026-05-06 09:55 34.78300 140.68246 40039 ft 518 kts
2026-05-06 09:55 34.81752 140.68961 39397 ft 493 kts 352°
2026-05-06 09:55 34.85172 140.69266 38780 ft 492 kts 351°
2026-05-06 09:55 34.88599 140.69594 38009 ft 495 kts 353°
2026-05-06 09:56 34.92032 140.69970 37310 ft 495 kts 354°
2026-05-06 09:56 34.95462 140.70384 36610 ft 496 kts 355°
2026-05-06 09:56 34.98900 140.70819 35879 ft 497 kts 355°
2026-05-06 09:56 35.02360 140.71255 35017 ft 502 kts 356°
2026-05-06 09:57 35.05846 140.71740 34122 ft 509 kts
2026-05-06 09:57 35.09311 140.73002 33089 ft 533 kts 18°
2026-05-06 09:57 35.12508 140.75383 32141 ft 543 kts 28°
2026-05-06 09:57 35.15584 140.78061 31485 ft 541 kts 30°
2026-05-06 09:58 35.18619 140.80751 30888 ft 536 kts 30°
2026-05-06 09:58 35.21598 140.83354 30314 ft 531 kts 28°
2026-05-06 09:58 35.24613 140.85928 29616 ft 526 kts 28°
2026-05-06 09:58 35.27618 140.88446 28975 ft 521 kts 28°
2026-05-06 09:59 35.30604 140.90926 28359 ft 516 kts 27°
2026-05-06 09:59 35.33562 140.93378 27761 ft 512 kts 28°
2026-05-06 09:59 35.36498 140.95818 27163 ft 507 kts 28°
2026-05-06 09:59 35.39403 140.98240 26571 ft 504 kts 28°
2026-05-06 10:00 35.42290 141.00653 25985 ft 500 kts 28°
2026-05-06 10:00 35.45153 141.03050 25392 ft 498 kts 28°
2026-05-06 10:00 35.48074 141.05195 24775 ft 480 kts 15°
2026-05-06 10:00 35.51207 141.06307 24217 ft 461 kts
2026-05-06 10:01 35.54347 141.06476 23548 ft 442 kts 345°
2026-05-06 10:01 35.57313 141.05897 22920 ft 428 kts 340°
2026-05-06 10:01 35.60235 141.05250 22299 ft 425 kts 340°
2026-05-06 10:01 35.63141 141.04631 21713 ft 422 kts 341°
2026-05-06 10:02 35.66030 141.04043 21133 ft 419 kts 342°
2026-05-06 10:02 35.68897 141.03477 20572 ft 415 kts 343°
2026-05-06 10:02 35.71737 141.02921 20015 ft 412 kts 343°
2026-05-06 10:02 35.74434 141.02087 19439 ft 389 kts 329°
2026-05-06 10:03 35.76647 141.00328 18900 ft 373 kts 314°
2026-05-06 10:03 35.78365 140.97994 18296 ft 364 kts 301°
2026-05-06 10:03 35.79657 140.95356 17686 ft 357 kts 296°
2026-05-06 10:03 35.80875 140.92698 17110 ft 355 kts 296°
2026-05-06 10:04 35.82078 140.90047 16548 ft 353 kts 296°
2026-05-06 10:04 35.83277 140.87416 16004 ft 352 kts 296°
2026-05-06 10:04 35.84481 140.84791 15467 ft 351 kts 296°
2026-05-06 10:04 35.85685 140.82182 14932 ft 350 kts 297°
2026-05-06 10:05 35.86894 140.79573 14400 ft 350 kts 297°
2026-05-06 10:05 35.88104 140.76963 13841 ft 351 kts 297°
2026-05-06 10:05 35.89315 140.74354 13231 ft 351 kts 297°
2026-05-06 10:05 35.90533 140.71730 12579 ft 353 kts 297°
2026-05-06 10:06 35.91751 140.69105 12021 ft 352 kts 297°
2026-05-06 10:06 35.92967 140.66483 11489 ft 352 kts 297°
2026-05-06 10:06 35.94181 140.63864 10960 ft 351 kts 298°
2026-05-06 10:06 35.95384 140.61267 10664 ft 344 kts 298°
2026-05-06 10:07 35.96550 140.58750 10498 ft 333 kts 298°
2026-05-06 10:07 35.97681 140.56305 10343 ft 323 kts 298°
2026-05-06 10:07 35.98792 140.54007 10179 ft 296 kts 302°
2026-05-06 10:07 35.99951 140.52033 10060 ft 274 kts 305°
2026-05-06 10:08 36.01123 140.50144 9887 ft 281 kts 305°
2026-05-06 10:08 36.02321 140.48213 9548 ft 283 kts 305°
2026-05-06 10:08 36.03502 140.46294 9250 ft 278 kts 304°
2026-05-06 10:08 36.04656 140.44405 8935 ft 273 kts 305°
2026-05-06 10:09 36.05785 140.42550 8625 ft 267 kts 304°
2026-05-06 10:09 36.06888 140.40728 8327 ft 263 kts 304°
2026-05-06 10:09 36.07986 140.38912 8040 ft 264 kts 304°
2026-05-06 10:09 36.09085 140.37090 7752 ft 265 kts 304°
2026-05-06 10:10 36.10185 140.35264 7446 ft 264 kts 304°
2026-05-06 10:10 36.11264 140.33468 7169 ft 261 kts 302°
2026-05-06 10:10 36.11961 140.31477 6927 ft 250 kts 278°
2026-05-06 10:10 36.12025 140.29348 6767 ft 247 kts 268°
2026-05-06 10:11 36.11995 140.27200 6595 ft 252 kts 268°
2026-05-06 10:11 36.11973 140.25024 6403 ft 254 kts 268°
2026-05-06 10:11 36.11953 140.22835 6209 ft 254 kts 268°
2026-05-06 10:11 36.11723 140.20726 6001 ft 246 kts 247°
2026-05-06 10:12 36.10745 140.19020 5862 ft 247 kts 221°
2026-05-06 10:12 36.09262 140.17932 5664 ft 251 kts 201°
2026-05-06 10:12 36.07588 140.17584 5479 ft 238 kts 184°
2026-05-06 10:12 36.05979 140.17600 5004 ft 227 kts 181°
2026-05-06 10:13 36.04423 140.17667 4381 ft 220 kts 176°
2026-05-06 10:13 36.02977 140.18314 4168 ft 228 kts 154°
2026-05-06 10:13 36.01584 140.19303 4021 ft 231 kts 154°
2026-05-06 10:13 36.00205 140.20282 3995 ft 226 kts 153°
2026-05-06 10:14 35.98847 140.21262 4000 ft 227 kts 153°
2026-05-06 10:14 35.97482 140.22255 3995 ft 228 kts 153°
2026-05-06 10:14 35.96150 140.23229 3984 ft 216 kts 153°
2026-05-06 10:14 35.94893 140.24147 3985 ft 205 kts 153°
2026-05-06 10:15 35.93662 140.25043 3771 ft 204 kts 154°
2026-05-06 10:15 35.92481 140.25904 3541 ft 190 kts 154°
2026-05-06 10:15 35.91374 140.26711 3272 ft 180 kts 154°
2026-05-06 10:15 35.90311 140.27483 3030 ft 176 kts 154°
2026-05-06 10:16 35.89265 140.28243 2796 ft 173 kts 154°
2026-05-06 10:16 35.88232 140.28994 2558 ft 172 kts 154°
2026-05-06 10:16 35.87210 140.29737 2345 ft 166 kts 153°
2026-05-06 10:16 35.86259 140.30430 2120 ft 153 kts 153°
2026-05-06 10:17 35.85376 140.31072 1916 ft 142 kts 154°
2026-05-06 10:17 35.84560 140.31665 1744 ft 132 kts 154°
2026-05-06 10:17 35.83771 140.32236 1585 ft 131 kts 154°
2026-05-06 10:17 35.82982 140.32808 1394 ft 132 kts 154°
2026-05-06 10:18 35.82190 140.33393 1189 ft 132 kts 153°
2026-05-06 10:18 35.81408 140.33966 1039 ft 132 kts 152°
2026-05-06 10:18 35.80614 140.34533 892 ft 133 kts 152°
2026-05-06 10:18 35.79802 140.35126 673 ft 135 kts 151°
2026-05-06 10:19 35.78989 140.35716 496 ft 138 kts 150°
2026-05-06 10:19 35.78148 140.36313 377 ft 144 kts 150°
2026-05-06 10:19 35.77279 140.36951 173 ft 145 kts 150°
2026-05-06 10:19 35.76211 140.37703 382 ft 198 kts 150°
2026-05-06 10:20 35.75245 140.38349 2651 ft 116 kts 160°
2026-05-06 10:20 35.74467 140.38468 3904 ft 113 kts 199°
2026-05-06 10:20 35.73654 140.38174 4463 ft 140 kts 192°
2026-05-06 10:20 35.72553 140.37939 4883 ft 179 kts 199°
2026-05-06 10:21 35.71405 140.37108 5190 ft 206 kts 213°
2026-05-06 10:21 35.69943 140.36513 5466 ft 240 kts 186°
2026-05-06 10:21 35.68223 140.36510 5873 ft 251 kts 181°
2026-05-06 10:21 35.66463 140.36543 5985 ft 257 kts 181°
2026-05-06 10:22 35.64649 140.36574 6004 ft 263 kts 181°
2026-05-06 10:22 35.62807 140.36604 6014 ft 267 kts 181°
2026-05-06 10:22 35.60951 140.36632 6008 ft 266 kts 181°
2026-05-06 10:22 35.59105 140.36658 6000 ft 265 kts 181°
2026-05-06 10:23 35.57263 140.36681 5996 ft 264 kts 181°
2026-05-06 10:23 35.55427 140.36704 6008 ft 264 kts 181°
2026-05-06 10:23 35.53609 140.36877 5999 ft 264 kts 166°
2026-05-06 10:23 35.51941 140.37905 6025 ft 273 kts 151°
2026-05-06 10:24 35.50302 140.39097 6015 ft 273 kts 152°
2026-05-06 10:24 35.48670 140.40273 6003 ft 271 kts 152°
2026-05-06 10:24 35.47049 140.41444 6004 ft 270 kts 152°
2026-05-06 10:24 35.45433 140.42615 6010 ft 268 kts 150°
2026-05-06 10:25 35.44058 140.44157 6015 ft 276 kts 125°
2026-05-06 10:25 35.43354 140.46352 6015 ft 279 kts 104°
2026-05-06 10:25 35.42961 140.48703 6023 ft 283 kts 103°
2026-05-06 10:25 35.42552 140.51070 6019 ft 284 kts 104°
2026-05-06 10:26 35.42360 140.53444 6011 ft 282 kts 84°
2026-05-06 10:26 35.43010 140.55710 6025 ft 285 kts 57°
2026-05-06 10:26 35.44422 140.57396 6024 ft 286 kts 30°
2026-05-06 10:26 35.46260 140.58242 6024 ft 279 kts 14°
2026-05-06 10:27 35.47443 140.58836 6007 ft 280 kts 31°
2026-05-06 10:27 35.49547 140.60781 6025 ft 290 kts 40°
2026-05-06 10:27 35.50491 140.61957 6026 ft 296 kts 50°
2026-05-06 10:27 35.51737 140.63956 6018 ft 292 kts 52°
2026-05-06 10:28 35.53473 140.66427 6007 ft 285 kts 45°
2026-05-06 10:28 35.54419 140.67574 6006 ft 282 kts 43°
2026-05-06 10:28 35.55875 140.69163 6020 ft 280 kts 39°
2026-05-06 10:28 35.57397 140.70644 6020 ft 279 kts 36°
2026-05-06 10:29 35.58983 140.72020 6026 ft 279 kts 32°
2026-05-06 10:29 35.60626 140.73286 6027 ft 279 kts 29°
2026-05-06 10:29 35.62328 140.74440 6029 ft 279 kts 25°
2026-05-06 10:29 35.64072 140.75472 6019 ft 277 kts 22°
2026-05-06 10:30 35.65854 140.76379 6017 ft 277 kts 19°
2026-05-06 10:30 35.67674 140.77166 6022 ft 277 kts 15°
2026-05-06 10:30 35.69524 140.77827 6026 ft 278 kts 12°
2026-05-06 10:30 35.71408 140.78395 6027 ft 280 kts 10°
2026-05-06 10:31 35.73321 140.78849 6019 ft 279 kts
2026-05-06 10:31 35.75240 140.79114 6008 ft 274 kts 356°
2026-05-06 10:31 35.77060 140.78599 6018 ft 267 kts 329°
2026-05-06 10:31 35.78417 140.77110 6021 ft 262 kts 304°
2026-05-06 10:32 35.79207 140.75157 5997 ft 257 kts 279°
2026-05-06 10:32 35.79224 140.72968 6025 ft 259 kts 266°
2026-05-06 10:32 35.79125 140.70711 6023 ft 266 kts 266°
2026-05-06 10:32 35.79043 140.68434 6016 ft 267 kts 267°
2026-05-06 10:33 35.79019 140.66169 5999 ft 261 kts 276°
2026-05-06 10:33 35.79676 140.64093 6009 ft 266 kts 305°
2026-05-06 10:33 35.81085 140.62606 6007 ft 272 kts 330°
2026-05-06 10:33 35.82865 140.61833 6006 ft 272 kts 343°
2026-05-06 10:34 35.84706 140.61263 6006 ft 274 kts 341°
2026-05-06 10:34 35.86513 140.60510 6011 ft 274 kts 335°
2026-05-06 10:34 35.88245 140.59527 6006 ft 274 kts 329°
2026-05-06 10:34 35.89883 140.58333 6010 ft 273 kts 324°
2026-05-06 10:35 35.91416 140.56962 6005 ft 271 kts 319°
2026-05-06 10:35 35.92837 140.55441 6003 ft 270 kts 314°
2026-05-06 10:35 35.94139 140.53792 6005 ft 268 kts 309°
2026-05-06 10:35 35.95314 140.52024 6004 ft 266 kts 305°
2026-05-06 10:36 35.96377 140.50165 6006 ft 264 kts 301°
2026-05-06 10:36 35.97306 140.48222 5978 ft 262 kts 295°
2026-05-06 10:36 35.98053 140.46175 5976 ft 261 kts 289°
2026-05-06 10:36 35.98638 140.44064 5986 ft 257 kts 285°
2026-05-06 10:37 35.99083 140.41918 5771 ft 259 kts 281°
2026-05-06 10:37 35.99392 140.39736 5495 ft 257 kts 276°
2026-05-06 10:37 35.99555 140.37563 5225 ft 252 kts 271°
2026-05-06 10:37 35.99570 140.35422 4991 ft 248 kts 266°
2026-05-06 10:38 35.99442 140.33295 4716 ft 249 kts 262°
2026-05-06 10:38 35.99175 140.31183 4430 ft 249 kts 257°
2026-05-06 10:38 35.98773 140.29108 4145 ft 248 kts 252°
2026-05-06 10:38 35.98268 140.27108 3997 ft 235 kts 249°
2026-05-06 10:39 35.97546 140.25488 3848 ft 199 kts 221°
2026-05-06 10:39 35.96350 140.24743 3838 ft 197 kts 196°
2026-05-06 10:39 35.94991 140.24633 3736 ft 196 kts 167°
2026-05-06 10:39 35.93769 140.25236 3690 ft 183 kts 160°
2026-05-06 10:40 35.92661 140.25870 3455 ft 169 kts 157°
2026-05-06 10:40 35.91669 140.26527 3269 ft 155 kts 155°
2026-05-06 10:40 35.90772 140.27159 3089 ft 143 kts 154°
2026-05-06 10:40 35.89942 140.27755 2931 ft 135 kts 155°
2026-05-06 10:41 35.89120 140.28349 2740 ft 137 kts 154°
2026-05-06 10:41 35.88317 140.28932 2558 ft 134 kts 153°
2026-05-06 10:41 35.87515 140.29515 2348 ft 132 kts 153°
2026-05-06 10:41 35.86727 140.30088 2181 ft 131 kts 153°
2026-05-06 10:42 35.85951 140.30653 1995 ft 129 kts 153°
2026-05-06 10:42 35.85195 140.31201 1813 ft 128 kts 153°
2026-05-06 10:42 35.84414 140.31769 1643 ft 128 kts 152°
2026-05-06 10:42 35.83662 140.32316 1479 ft 126 kts 152°
2026-05-06 10:43 35.82907 140.32871 1282 ft 128 kts 152°
2026-05-06 10:43 35.82130 140.33423 1166 ft 128 kts 152°
2026-05-06 10:43 35.81369 140.33982 938 ft 129 kts 152°
2026-05-06 10:44 35.79799 140.35116 668 ft 131 kts 150°
2026-05-06 10:44 35.78994 140.35703 460 ft 138 kts 150°
2026-05-06 10:44 35.78180 140.36301 322 ft 138 kts 151°
2026-05-06 10:44 35.77343 140.36896 176 ft 139 kts 147°
2026-05-06 10:45 35.76558 140.37471 150 ft 116 kts 148°
2026-05-06 10:45 35.75995 140.37872 149 ft 71 kts 149°
2026-05-06 10:45 35.75682 140.38098 151 ft 43 kts 147°
2026-05-06 10:45 35.75503 140.38329 150 ft 20 kts 120°
2026-05-06 10:46 35.75481 140.38439 149 ft 13 kts 65°
2026-05-06 10:46 35.75561 140.38442 149 ft 14 kts 332°
2026-05-06 10:46 35.75647 140.38380 149 ft 15 kts 328°
2026-05-06 10:46 35.75739 140.38313 149 ft 16 kts 330°
2026-05-06 10:47 35.75840 140.38298 149 ft 16 kts 33°
2026-05-06 10:47 35.75944 140.38294 149 ft 17 kts 331°
2026-05-06 10:47 35.76050 140.38217 148 ft 18 kts 328°
2026-05-06 10:47 35.76165 140.38133 148 ft 20 kts 330°
2026-05-06 10:48 35.76291 140.38045 148 ft 21 kts 330°
2026-05-06 10:48 35.76421 140.37950 148 ft 23 kts 328°
2026-05-06 10:48 35.76548 140.37860 148 ft 20 kts 330°
2026-05-06 10:48 35.76673 140.37769 148 ft 22 kts 329°
2026-05-06 10:49 35.76802 140.37674 148 ft 21 kts 329°
2026-05-06 10:49 35.76933 140.37580 148 ft 22 kts 330°
2026-05-06 10:49 35.77072 140.37482 148 ft 23 kts 329°
2026-05-06 10:49 35.77189 140.37398 148 ft 15 kts 330°
2026-05-06 10:50 35.77268 140.37419 148 ft 14 kts 53°
2026-05-06 10:50 35.77288 140.37458 148 ft 1 kts 58°
2026-05-06 10:50 35.77290 140.37463 148 ft 0 kts 58°